"TOA5","AWS1","CR1000","7964","CR1000.Std.14","CPU:AWS1_114.CR1","64363","TBL110"
"TIMESTAMP","RECORD","Wind_spd_WVc(1)","Wind_spd_WVc(2)","Air_Temp_Avg","Humidity_Avg","SW_upper_Wm2_Avg","Rain_Tot","Press_Avg","Issui_Tot","Depth_cm","SR50A_Raw","Quality","Ground_Temp_Avg(1)","Ground_Temp_Avg(2)","SW_lower_Wm2_Avg","Albedo_Avg","SWC_per(1)","SWC_per(2)","Period(1)","Period(2)"
"TS","RN","","","","","","","","","","","","","","","","","","",""
"","","WVc","WVc","Avg","Avg","Avg","Tot","Avg","Tot","Smp","Smp","Smp","Avg","Avg","Avg","Avg","Smp","Smp","Smp","Smp"
"2016-11-21 00:00:00",262861,0.092,138.3,6.168,100,0,0,869.8885,0,-3.058,3.175,197,8.14,8.37,0,0,51.82,59.91,33.75,35.66
"2016-11-21 00:10:00",262862,0.219,149.2,6.112,100,0,0,869.7526,0,-3.009,3.175,185,8.11,8.36,0,0,51.82,59.91,33.75,35.66
"2016-11-21 00:20:00",262863,0.272,140.9,5.966,100,0,0,869.7216,0,-2.959,3.175,193,8.12,8.35,0,0,51.82,59.85,33.75,35.64
"2016-11-21 00:30:00",262864,0.295,173.6,5.994,100,0,0,869.6886,0,-3.035,3.176,197,8.12,8.35,0.02274502,0,51.82,59.85,33.75,35.64
"2016-11-21 00:40:00",262865,0.048,170.5,5.915,100,0,0,869.7518,0,-3.161,3.177,197,8.11,8.34,0,0,51.77,59.85,33.73,35.64
"2016-11-21 00:50:00",262866,0.118,149.8,5.719,100,0,0,869.6826,0,-3.038,3.178,196,8.11,8.34,0,0,51.82,59.85,33.75,35.64
"2016-11-21 01:00:00",262867,0.116,146.5,5.439,100,0,0,869.665,0,-3.166,3.181,196,8.08,8.35,0,0,51.82,59.85,33.75,35.64
"2016-11-21 01:10:00",262868,0,0,5.197,100,0,0,869.7567,0,-2.613,3.177,192,8.04,8.37,0,0,51.77,59.85,33.73,35.64
"2016-11-21 01:20:00",262869,0.082,162.2,4.669,100,0,0,869.707,0,-3.121,3.186,182,8.06,8.38,0,0,51.77,59.85,33.73,35.64
"2016-11-21 01:30:00",262870,0.108,187.4,4.367,100,0,0,869.5544,0,-2.816,3.181,198,8.11,8.37,0.208496,0,51.82,59.85,33.75,35.64
"2016-11-21 01:40:00",262871,0.119,189.1,4.29,100,0,0,869.5378,0,-3.222,3.188,184,8.12,8.33,0.5458804,0,51.77,59.79,33.73,35.63
"2016-11-21 01:50:00",262872,0.197,196.8,4.016,100,0,0,869.5294,0,-3.121,3.187,193,8.07,8.3,0.5648346,0,51.77,59.79,33.73,35.63
"2016-11-21 02:00:00",262873,0.109,205.3,3.993,100,0,0,869.5505,0,-3.172,3.189,193,7.966,8.29,0.6444422,0,51.82,59.79,33.75,35.63
"2016-11-21 02:10:00",262874,0.08,130.1,4.163,100,0,0,869.5316,0,-3.474,3.192,194,7.959,8.29,1.379864,0,51.77,59.79,33.73,35.63
"2016-11-21 02:20:00",262875,0.173,159.6,3.638,100,0,0,869.4641,0,-2.922,3.188,193,8.02,8.3,0.4738545,0,51.77,59.85,33.73,35.64
"2016-11-21 02:30:00",262876,0.242,189.4,3.72,100,0,0,869.3672,0,-2.579,3.183,199,8.04,8.3,0.7733583,0,51.77,59.85,33.73,35.64
"2016-11-21 02:40:00",262877,0.123,292.4,4.19,100,0,0,869.4072,0,-3.201,3.188,195,8.07,8.33,1.531706,0,51.77,59.79,33.73,35.63
"2016-11-21 02:50:00",262878,0.126,169.3,3.636,100,0,0,869.3291,0,-3.167,3.193,198,8.1,8.36,0.4929175,0,51.77,59.79,33.73,35.63
"2016-11-21 03:00:00",262879,0.205,175.8,3.249,100,0,0,869.4026,0,-3.173,3.193,198,8.08,8.36,0.4019546,0,51.77,59.85,33.73,35.64
"2016-11-21 03:10:00",262880,0.617,182.6,3.27,100,0,0,869.3069,0,-3.476,3.196,195,7.983,8.36,0.5422689,0,51.77,59.79,33.73,35.63
"2016-11-21 03:20:00",262881,0.12,186.8,3.439,100,0,0,869.5456,0,-4.28,3.202,182,8,8.36,0.7318705,0,51.77,59.79,33.73,35.63
"2016-11-21 03:30:00",262882,0.06,142.5,3.645,99.6,0,0,869.5789,0,-3.728,3.198,201,8.04,8.36,0.9935279,0,51.77,59.79,33.73,35.63
"2016-11-21 03:40:00",262883,0.162,164.1,3.348,98.8,0,0,869.6104,0,-3.628,3.199,192,7.985,8.34,0.784968,0,51.77,59.79,33.73,35.63
"2016-11-21 03:50:00",262884,0.347,176.3,3.295,99,0,0,869.3822,0,-3.276,3.193,200,7.954,8.36,0.9669923,0,51.71,59.73,33.72,35.62
"2016-11-21 04:00:00",262885,0.574,182.3,3.321,96.1,0,0,869.1133,0,-3.427,3.194,193,7.952,8.38,0.6674148,0,51.71,59.79,33.72,35.63
"2016-11-21 04:10:00",262886,0.566,186.5,3.621,90,0,0,869.1067,0,-3.804,3.196,195,7.952,8.37,1.095926,0,51.71,59.73,33.72,35.62
"2016-11-21 04:20:00",262887,0.643,190,3.644,87.4,0,0,869.0148,0,-3.023,3.189,205,7.949,8.37,1.61924,0,51.71,59.79,33.72,35.63
"2016-11-21 04:30:00",262888,0.208,195.8,3.911,82.3,0,0,868.9265,0,-3.879,3.197,200,7.913,8.37,1.846767,0,51.71,59.73,33.72,35.62
"2016-11-21 04:40:00",262889,0.134,180.6,3.744,82.1,0,0,869.1415,0,-3.023,3.187,207,7.902,8.39,1.664745,0,51.77,59.73,33.73,35.62
"2016-11-21 04:50:00",262890,0.054,226.5,4.428,78.75,0,0,869.4977,0,-3.476,3.19,203,7.877,8.39,2.426963,0,51.71,59.73,33.72,35.62
"2016-11-21 05:00:00",262891,0.077,36.44,3.533,84.1,0,0,869.6158,0,-3.779,3.201,194,7.865,8.39,1.28174,0,51.71,59.73,33.72,35.62
"2016-11-21 05:10:00",262892,0.164,179.4,3.137,88.3,0,0,869.6579,0,-3.703,3.195,201,7.864,8.39,1.323454,0,51.71,59.73,33.72,35.62
"2016-11-21 05:20:00",262893,0.607,185.4,3.316,84.4,0,0,869.6115,0,-3.527,3.196,202,7.84,8.39,1.478931,0,51.71,59.73,33.72,35.62
"2016-11-21 05:30:00",262894,0.318,194.1,3.722,78.04,0,0,869.6136,0,-3.324,3.188,195,7.799,8.39,1.941571,0,51.71,59.73,33.72,35.62
"2016-11-21 05:40:00",262895,0.282,190.3,3.846,77.23,0,0,869.6136,0,-2.722,3.186,200,7.779,8.39,1.86952,0,51.71,59.73,33.72,35.62
"2016-11-21 05:50:00",262896,0.446,184.2,3.768,76.92,0,0,869.837,0,-3.678,3.197,195,7.773,8.39,1.956739,0,51.71,59.73,33.72,35.62
"2016-11-21 06:00:00",262897,0.41,192.7,3.565,75.22,0,0,869.7759,0,-3.879,3.198,188,7.704,8.39,1.74438,0,51.71,59.67,33.72,35.6
"2016-11-21 06:10:00",262898,0.711,181.6,3.232,77.61,0,0,869.6179,0,-3.376,3.195,192,7.724,8.39,1.403088,0,51.71,59.67,33.72,35.6
"2016-11-21 06:20:00",262899,0.474,193.5,3.705,71.94,0,0,869.7169,0,-3.652,3.194,198,7.7,8.39,1.952947,0,51.71,59.67,33.72,35.6
"2016-11-21 06:30:00",262900,0.669,187,3.765,67.18,0,0,869.8391,0,-3.274,3.189,201,7.692,8.39,2.04775,0,51.71,59.67,33.72,35.6
"2016-11-21 06:40:00",262901,0.675,184.3,3.865,62.33,0,0,869.8665,0,-3.123,3.188,194,7.657,8.39,2.116009,0,51.71,59.67,33.72,35.6
"2016-11-21 06:50:00",262902,0.424,182.5,4.272,57.54,0,0,869.9297,0,-3.376,3.192,198,7.613,8.39,2.840306,0,51.71,59.67,33.72,35.6
"2016-11-21 07:00:00",262903,0.547,183.3,3.909,58.95,2.843537,0,870.0414,0,-2.62,3.182,202,7.65,8.39,2.957862,2.015,51.71,59.67,33.72,35.6
"2016-11-21 07:10:00",262904,0.214,181.4,4.557,51.55,15.70828,0,870.2291,0,-3.323,3.186,188,7.605,8.39,5.104208,0.335,51.66,59.67,33.7,35.6
"2016-11-21 07:20:00",262905,0.463,187.2,4.464,54.66,32.26608,0,870.1658,0,-3.073,3.186,191,7.605,8.39,7.151958,0.227,51.66,59.67,33.7,35.6
"2016-11-21 07:30:00",262906,0.578,191.1,4.587,54.81,58.19221,0,870.2438,0,-3.22,3.183,188,7.605,8.39,12.36993,0.211,51.71,59.67,33.72,35.6
"2016-11-21 07:40:00",262907,0.344,274.6,6.344,45.23,77.07439,0,870.3829,0,-2.538,3.162,194,7.605,8.36,16.78397,0.218,51.71,59.61,33.72,35.59
"2016-11-21 07:50:00",262908,0.193,280.8,7.343,45.15,92.90852,0,870.6,0,-2.248,3.165,189,7.602,8.34,21.52413,0.232,51.71,59.61,33.72,35.59
"2016-11-21 08:00:00",262909,0.162,178.9,6.989,56.76,103.2286,0,870.6211,0,-2.244,3.163,180,7.604,8.38,18.86206,0.184,51.71,59.61,33.72,35.59
"2016-11-21 08:10:00",262910,0.142,182.6,7.275,52.37,82.22658,0,870.6161,0,-2.234,3.159,194,7.575,8.39,15.23299,0.185,51.66,59.61,33.7,35.59
"2016-11-21 08:20:00",262911,0.201,189.5,7.194,56.28,81.5613,0,870.5829,0,-2.181,3.159,194,7.577,8.39,12.62391,0.155,51.66,59.61,33.7,35.59
"2016-11-21 08:30:00",262912,0.041,201.1,7.334,54.91,77.41538,0,870.5139,0,-2.366,3.16,185,7.536,8.38,12.00509,0.155,51.71,59.56,33.72,35.58
"2016-11-21 08:40:00",262913,0.224,169.6,7.249,61.98,87.7827,0,870.3734,0,-2.157,3.163,177,7.399,8.36,14.1078,0.161,51.66,59.56,33.7,35.58
"2016-11-21 08:50:00",262914,0.263,158.2,7.535,49.94,85.36449,0,870.2551,0,-1.921,3.152,190,7.358,8.32,13.82597,0.162,51.71,59.56,33.72,35.58
"2016-11-21 09:00:00",262915,0.471,42.27,8.63,34.92,87.55511,0,870.027,0,-2.109,3.15,190,7.348,8.33,15.09919,0.173,51.66,59.56,33.7,35.58
"2016-11-21 09:10:00",262916,0.463,347,9.05,33.55,101.0513,0,870.1153,0,-2.619,3.156,176,7.344,8.36,18.04449,0.179,51.71,59.61,33.72,35.59
"2016-11-21 09:20:00",262917,0.549,334.1,6.864,61.55,121.692,0,870.4693,0,-2.657,3.173,194,7.35,8.35,21.06572,0.173,51.66,59.56,33.7,35.58
"2016-11-21 09:30:00",262918,0.136,142.3,6.035,67.39,112.7906,0,870.4018,0,-2.652,3.17,189,7.398,8.36,17.10427,0.152,51.66,59.56,33.7,35.58
"2016-11-21 09:40:00",262919,0.162,121,6.68,63.41,123.4178,0,870.5051,0,-2.543,3.165,186,7.341,8.35,21.28935,0.172,51.71,59.56,33.72,35.58
"2016-11-21 09:50:00",262920,0.164,132.4,7.563,57.42,149.4176,0,870.3576,0,-1.972,3.154,229,7.311,8.34,26.6079,0.178,51.66,59.56,33.7,35.58
"2016-11-21 10:00:00",262921,0.591,113.3,8.1,55.68,149.7872,0,870.1806,0,-3.641,3.169,190,7.279,8.31,24.57601,0.164,51.66,59.56,33.7,35.58
"2016-11-21 10:10:00",262922,0.353,77.43,8.64,53.88,217.1046,0,869.9061,0,-2.914,3.156,188,7.261,8.3,37.35113,0.172,51.66,59.56,33.7,35.58
"2016-11-21 10:20:00",262923,0.361,138.4,9.88,51.41,278.1038,0,869.8779,0,-2.383,3.145,204,7.319,8.3,43.37098,0.157,51.71,59.56,33.72,35.58
"2016-11-21 10:30:00",262924,0.468,104.7,10.34,54.97,222.4344,0,869.973,0,-1.77,3.139,249,7.341,8.29,35.92175,0.162,51.66,59.5,33.7,35.56
"2016-11-21 10:40:00",262925,0.348,7.899,9.78,62.79,238.4951,0,869.9064,0,-3.712,3.164,212,7.328,8.28,38.28157,0.16,51.71,59.56,33.72,35.58
"2016-11-21 10:50:00",262926,0.419,336.7,9.01,69.85,304.1808,0,869.9166,0,-1.963,3.147,212,7.296,8.25,51.49343,0.171,51.66,59.5,33.7,35.56
"2016-11-21 11:00:00",262927,0.27,318.8,9.15,70.22,238.2641,0,869.737,0,-2.034,3.149,195,7.262,8.22,38.2318,0.159,51.71,59.5,33.72,35.56
"2016-11-21 11:10:00",262928,0.417,316.8,9.13,69.63,260.0034,0,869.5026,0,-2.306,3.151,195,7.267,8.2,44.38056,0.17,51.66,59.5,33.7,35.56
"2016-11-21 11:20:00",262929,0.579,304.9,9.15,73.31,241.7816,0,869.3887,0,-2.711,3.155,188,7.26,8.2,40.4765,0.166,51.71,59.5,33.72,35.56
"2016-11-21 11:30:00",262930,0.257,292.7,9.19,76.52,263.7425,0,869.2875,0,-2.652,3.152,188,7.328,8.2,40.47242,0.153,51.66,59.5,33.7,35.56
"2016-11-21 11:40:00",262931,0.193,334.3,9.54,76.38,267.1849,0,869.1632,0,-2.729,3.153,191,7.3,8.18,44.50822,0.166,51.66,59.5,33.7,35.56
"2016-11-21 11:50:00",262932,0.315,355.2,9.65,76.98,340.972,0,869.1422,0,-2.746,3.151,180,7.282,8.18,57.43813,0.168,51.66,59.44,33.7,35.55
"2016-11-21 12:00:00",262933,0.316,317.1,9.89,77.19,237.6134,0,869.1738,0,-2.697,3.151,198,7.314,8.17,34.64022,0.146,51.66,59.5,33.7,35.56
"2016-11-21 12:10:00",262934,0.106,292.8,9.89,77.84,208.7297,0,869.1758,0,-2.034,3.144,211,7.425,8.18,29.66076,0.142,51.66,59.44,33.7,35.55
"2016-11-21 12:20:00",262935,0.085,329.1,9.84,78.77,179.9796,0,869.0137,0,-2.543,3.149,197,7.384,8.2,24.73436,0.137,51.66,59.44,33.7,35.55
"2016-11-21 12:30:00",262936,0.192,353.4,9.78,79.04,163.1737,0,868.9232,0,-2.266,3.147,203,7.362,8.2,22.36968,0.137,51.66,59.5,33.7,35.56
"2016-11-21 12:40:00",262937,0.176,300.9,9.76,79.8,188.6813,0,868.841,0,-2.729,3.153,201,7.494,8.2,26.79966,0.142,51.66,59.5,33.7,35.56
"2016-11-21 12:50:00",262938,0.18,65.04,9.66,79.31,199.5878,0,868.6093,0,-2.722,3.151,210,7.49,8.2,29.05065,0.145,51.66,59.44,33.7,35.55
"2016-11-21 13:00:00",262939,0.422,121,9.91,78.25,201.9617,0,868.4177,0,-2.308,3.145,302,7.479,8.2,29.8654,0.148,51.66,59.44,33.7,35.55
"2016-11-21 13:10:00",262940,0.215,18.74,10.06,77.82,196.5458,0,868.4177,0,-2.975,3.153,202,7.577,8.2,28.9938,0.148,51.66,59.44,33.7,35.55
"2016-11-21 13:20:00",262941,0.36,87.1,9.97,77.41,184.0435,0,868.2491,0,-2.894,3.151,202,7.556,8.2,26.87166,0.146,51.6,59.44,33.69,35.55
"2016-11-21 13:30:00",262942,0.297,2.981,10.13,76.95,197.9135,0,867.8342,0,-2.328,3.144,202,7.573,8.2,28.49359,0.144,51.66,59.44,33.7,35.55
"2016-11-21 13:40:00",262943,0.137,65.38,10.47,76.06,171.1286,0,867.809,0,-2.679,3.146,201,7.644,8.2,25.07541,0.147,51.6,59.5,33.69,35.56
"2016-11-21 13:50:00",262944,0.183,176.2,10.7,75.33,162.0143,0,867.6426,0,-2.682,3.147,203,7.62,8.2,23.36254,0.144,51.6,59.44,33.69,35.55
"2016-11-21 14:00:00",262945,0.246,10.06,10.44,74.68,142.807,0,867.4067,0,-2.629,3.146,200,7.663,8.19,20.38017,0.143,51.6,59.44,33.69,35.55
"2016-11-21 14:10:00",262946,0.29,353.7,10.44,75.44,122.4717,0,867.2614,0,-2.866,3.15,196,7.761,8.17,17.46222,0.143,51.6,59.44,33.69,35.55
"2016-11-21 14:20:00",262947,0.169,305.8,10.26,77.55,118.9069,0,867.1539,0,-2.69,3.149,202,7.759,8.14,16.98853,0.143,51.6,59.44,33.69,35.55
"2016-11-21 14:30:00",262948,0.276,318.5,10.16,78.39,119.4807,0,867.0823,0,-3.786,3.16,195,7.788,8.12,17.09842,0.143,51.6,59.44,33.69,35.55
"2016-11-21 14:40:00",262949,0.408,13.01,10.1,77.62,105.764,0,866.838,0,-2.919,3.151,186,7.836,8.08,15.2605,0.144,51.55,59.44,33.68,35.55
"2016-11-21 14:50:00",262950,0.873,141.2,10.4,72.45,92.90805,0,866.6674,0,-3.824,3.157,187,7.818,8.06,14.15016,0.152,51.6,59.44,33.69,35.55
"2016-11-21 15:00:00",262951,0.9,149.7,10.85,66.62,82.61856,0,866.5726,0,-3.797,3.156,188,7.858,8.07,12.99814,0.157,51.6,59.44,33.69,35.55
"2016-11-21 15:10:00",262952,0.905,168.3,10.89,65.9,73.24089,0,866.4315,0,-4,3.158,192,7.922,8.05,11.26632,0.154,51.6,59.44,33.69,35.55
"2016-11-21 15:20:00",262953,0.423,349.1,10.34,74.19,65.35674,0,866.5347,0,-3.915,3.162,191,7.931,8.07,9.265436,0.141,51.6,59.44,33.69,35.55
"2016-11-21 15:30:00",262954,0.441,324.8,9.9,77.18,56.72583,0,866.6484,0,-3.814,3.161,197,7.972,8.07,8.098256,0.143,51.6,59.44,33.69,35.55
"2016-11-21 15:40:00",262955,0.242,250,10.07,74.75,47.58006,0,866.6906,0,-3.227,3.155,200,7.982,8.07,6.931077,0.146,51.6,59.44,33.69,35.55
"2016-11-21 15:50:00",262956,0.45,206.3,10.07,73.59,37.54996,0,866.6484,0,-3.35,3.155,200,8.01,8.08,5.521367,0.147,51.55,59.38,33.68,35.54
"2016-11-21 16:00:00",262957,0.66,157.4,10.23,71.13,29.27671,0,866.6484,0,-3.066,3.151,193,8.01,8.09,4.721772,0.162,51.55,59.38,33.68,35.54
"2016-11-21 16:10:00",262958,0.626,156.7,10.58,68.06,21.42006,0,866.6337,0,-3.392,3.153,198,8,8.08,3.736491,0.175,51.55,59.38,33.68,35.54
"2016-11-21 16:20:00",262959,0.751,161.2,10.64,67.53,11.84195,0,866.5789,0,-3.649,3.156,202,7.99,8.08,2.106987,0.177,51.55,59.38,33.68,35.54
"2016-11-21 16:30:00",262960,0.462,25.32,10.19,71.13,3.808448,0,866.4905,0,-2.922,3.152,186,7.986,8.09,0.2690577,0.044,51.55,59.38,33.68,35.54
"2016-11-21 16:40:00",262961,0.409,197,10.25,71.02,0.5109373,0,866.6463,0,-3.196,3.153,190,8.03,8.1,0.003789545,0.008,51.55,59.38,33.68,35.54
"2016-11-21 16:50:00",262962,0.189,335.7,10.17,72.11,0.165072,0,866.6442,0,-2.714,3.149,198,8.07,8.12,0.007579089,0.008,51.55,59.38,33.68,35.54
"2016-11-21 17:00:00",262963,0.287,304.8,10.07,73,0,0,866.6884,0,-2.694,3.15,194,8.12,8.14,0,0,51.49,59.32,33.66,35.52
"2016-11-21 17:10:00",262964,0.328,27.95,9.82,74.86,0,0,866.8781,0,-2.799,3.152,198,8.12,8.19,0,0,51.49,59.38,33.66,35.54
"2016-11-21 17:20:00",262965,0.101,301,9.76,75.62,0,0,866.9012,0,-2.697,3.151,195,8.12,8.21,0,0,51.55,59.38,33.68,35.54
"2016-11-21 17:30:00",262966,0.175,352.1,9.89,74.6,0,0,866.9012,0,-2.718,3.15,199,8.12,8.21,0,0,51.49,59.32,33.66,35.52
"2016-11-21 17:40:00",262967,0.441,352.1,9.96,74.16,0,0,866.9012,0,-2.848,3.152,189,8.12,8.21,0,0,51.49,59.38,33.66,35.54
"2016-11-21 17:50:00",262968,0.441,139.6,9.7,75.76,0,0,866.8549,0,-3.413,3.159,198,8.12,8.2,0,0,51.49,59.38,33.66,35.54
"2016-11-21 18:00:00",262969,0.56,157.6,9.69,75.44,0,0,866.701,0,-2.971,3.152,194,8.12,8.21,0.1818981,0,51.49,59.38,33.66,35.54
"2016-11-21 18:10:00",262970,0.365,144.3,10.03,73.61,0,0,866.699,0,-3.357,3.157,201,8.12,8.2,0.1781086,0,51.49,59.32,33.66,35.52
"2016-11-21 18:20:00",262971,0.356,58.2,9.59,75.68,0,0,866.6695,0,-3.034,3.156,204,8.12,8.2,0,0,51.49,59.32,33.66,35.52
"2016-11-21 18:30:00",262972,0.712,150.2,9.48,76.71,0,0,866.6505,0,-2.395,3.149,202,8.12,8.2,0,0,51.44,59.32,33.65,35.52
"2016-11-21 18:40:00",262973,0.732,182,9.94,74.1,0,0,866.7791,0,-2.205,3.144,205,8.12,8.2,0.3713754,0,51.49,59.32,33.66,35.52
"2016-11-21 18:50:00",262974,0.51,130.8,10.19,73.08,0,0,866.8928,0,-2.739,3.149,196,8.12,8.2,0.2955845,0,51.49,59.32,33.66,35.52
"2016-11-21 19:00:00",262975,0.24,171.4,10.29,73.03,0,0,866.7347,0,-2.736,3.148,199,8.12,8.2,0.2387413,0,51.44,59.32,33.65,35.52
"2016-11-21 19:10:00",262976,0.098,162.9,10.18,73.98,0,0,866.8822,0,-2.946,3.152,192,8.12,8.2,0.1061072,0,51.49,59.32,33.66,35.52
"2016-11-21 19:20:00",262977,0.131,35.09,9.74,79.52,0,0,867.0549,0,-4.029,3.167,194,8.12,8.2,0.2122145,0,51.49,59.32,33.66,35.52
"2016-11-21 19:30:00",262978,0.336,312.7,8.69,88.5,0,0.5,867.156,0,-3.08,3.163,197,8.12,8.2,0,0,51.44,59.32,33.65,35.52
"2016-11-21 19:40:00",262979,0.207,144.5,8.17,95.4,0,0.5,867.1034,0,-3.439,3.168,199,8.12,8.2,0,0,51.44,59.32,33.65,35.52
"2016-11-21 19:50:00",262980,0.492,137.3,8.07,99.8,0,0,866.9307,0,-4.426,3.177,198,8.12,8.2,0.1591609,0,51.49,59.32,33.66,35.52
"2016-11-21 20:00:00",262981,0.621,132,8.15,100,0,0,866.7179,0,-4.528,3.178,186,8.12,8.2,0.4547453,0,51.44,59.26,33.65,35.51
"2016-11-21 20:10:00",262982,0.349,183.6,8.39,99.7,0,0,866.6337,0,-4.576,3.177,194,8.13,8.2,0.7162239,0,51.49,59.32,33.66,35.52
"2016-11-21 20:20:00",262983,0.155,126,8.81,96.1,0,0,866.3957,0,-4.084,3.169,194,8.13,8.21,1.08381,0,51.44,59.26,33.65,35.51
"2016-11-21 20:30:00",262984,0.272,132.1,9.05,92.3,0,0,866.3177,0,-3.419,3.161,192,8.13,8.23,1.148232,0,51.44,59.32,33.65,35.52
"2016-11-21 20:40:00",262985,0.243,121.2,9.25,89.3,0,0,866.145,0,-3.956,3.167,198,8.12,8.27,1.481712,0,51.49,59.26,33.66,35.51
"2016-11-21 20:50:00",262986,0.218,119.9,9.29,88.7,0,0,866.0966,0,-3.573,3.163,198,8.12,8.29,1.364236,0,51.44,59.26,33.65,35.51
"2016-11-21 21:00:00",262987,0.53,135.5,9.15,89.3,0,0,865.9008,0,-3.777,3.165,206,8.1,8.31,1.349078,0,51.44,59.26,33.65,35.51
"2016-11-21 21:10:00",262988,0.47,147.6,9.57,86.2,0,0,865.9681,0,-2.677,3.152,198,8.08,8.33,2.042565,0,51.44,59.26,33.65,35.51
"2016-11-21 21:20:00",262989,0.311,142.6,9.78,85.4,0,0,865.9092,0,-2.824,3.152,197,8.08,8.3,1.765928,0,51.44,59.26,33.65,35.51
"2016-11-21 21:30:00",262990,0.33,135.6,9.74,85.6,0,0,865.8291,0,-3.717,3.161,200,8.09,8.29,1.409719,0,51.44,59.26,33.65,35.51
"2016-11-21 21:40:00",262991,0.166,339.6,9.64,86.9,0,0,865.8945,0,-4,3.165,188,8.1,8.29,1.030768,0,51.44,59.2,33.65,35.5
"2016-11-21 21:50:00",262992,0.599,320.6,9.16,91.4,0,0,865.8439,0,-4.09,3.171,189,8.08,8.29,0.3789569,0,51.44,59.2,33.65,35.5
"2016-11-21 22:00:00",262993,0.316,131.7,8.45,98.9,0,0,865.6416,0,-4.525,3.177,201,8.07,8.29,0,0,51.44,59.2,33.65,35.5
"2016-11-21 22:10:00",262994,0.505,145.5,8.25,100,0,0,865.4816,0,-3.689,3.169,202,8.05,8.29,0,0,51.44,59.26,33.65,35.51
"2016-11-21 22:20:00",262995,0.619,133.8,8.25,100,0,0,865.5764,0,-3.944,3.172,224,8,8.29,0,0,51.44,59.2,33.65,35.5
"2016-11-21 22:30:00",262996,0.327,137,8.23,100,0,0,865.4963,0,-3.31,3.166,248,7.99,8.29,0.003789545,0,51.44,59.2,33.65,35.5
"2016-11-21 22:40:00",262997,0.138,357.1,8.29,100,0,0,865.3848,0,-2.191,3.154,329,7.994,8.29,0.1288445,0,51.38,59.2,33.64,35.5
"2016-11-21 22:50:00",262998,0.272,140,8.21,100,0,0,865.3089,0,-1.28,3.146,374,7.999,8.29,0.01136863,0,51.38,59.2,33.64,35.5
"2016-11-21 23:00:00",262999,0.382,149.5,8.1,100,0,0,865.1235,0,-2.652,3.16,237,8.01,8.29,0.01894772,0,51.38,59.2,33.64,35.5
"2016-11-21 23:10:00",263000,0.343,108.6,8.39,100,0,0,865.1973,0,-2.745,3.158,214,8,8.29,0.4547453,0,51.38,59.14,33.64,35.48
"2016-11-21 23:20:00",263001,0.442,96.4,8.88,100,0,0,865.3826,0,-2.486,3.153,237,8.01,8.29,0.7351791,0,51.38,59.2,33.64,35.5
"2016-11-21 23:30:00",263002,0.168,298.9,9.14,97.9,0,0,865.1487,0,-2.635,3.154,222,8.01,8.3,0.6290714,0,51.38,59.2,33.64,35.5
"2016-11-21 23:40:00",263003,0.285,318.4,9,97.2,0,0,865.1572,0,-2.641,3.156,195,7.999,8.32,0.3334816,0,51.44,59.14,33.65,35.48
"2016-11-21 23:50:00",263004,0.119,325.1,8.82,99.8,0,0,865.0667,0,-2.97,3.159,203,7.993,8.36,0.01894776,0,51.44,59.2,33.65,35.5
